Location: Newark
(50.0821°N, 8.2414°E)
Time: 22:20:53
(UTC+00:00)

ISS - Pass Details

Date: 29 July 2019
Orbit: 410 x 420 km, 51.6° (Epoch: 20 August)

Event Time Altitude Azimuth Distance (km) Brightness Sun altitude
Rises 19:50:10 0° 283° (WNW) 2,375 1.4 -5.5°
Reaches altitude 10° 19:52:17 10° 285° (WNW) 1,508 0.3 -5.8°
Maximum altitude 19:55:40 78° 13° (NNE) 435 -3.6 -6.2°
Drops below altitude 10° 19:59:02 10° 99° (E) 1,499 -1.5 -6.6°
Enters shadow 19:59:49 - 100° (E) 1,814 -1.1 -6.7°
